Muskegon, MI

10:05 PM EST on January 21, 2017 (GMT -0500)
Muskegon

Weather History for KMKG - October, 2012

Change the Weather History Date:

Tuesday, October 16, 2012

  Actual Average Record
Temperature  
Mean Temperature 48 °F 50 °F  
Max Temperature 63 °F 59 °F 81 °F (1968)
Min Temperature 32 °F 42 °F 25 °F (1977)
Degree Days  
Heating Degree Days 17 15  
Month to date heating degree days 227 195  
Since 1 July heating degree days 369 368  
Cooling Degree Days 0 0  
Month to date cooling degree days 0 2  
Year to date cooling degree days 925 563  
Moisture  
Dew Point 38 °F    
Average Humidity 71    
Maximum Humidity 96    
Minimum Humidity 46    
Precipitation  
Precipitation T in 0.09 in 1.61 in (2016)
Month to date precipitation 3.02 1.61  
Year to date precipitation 24.29 26.08  
Snow  
Snow 0.00 in 0.00 in T in (1992)
Month to date snowfall T 0.0  
Since 1 July snowfall T 0.0  
Since 1 September snowfall T 0.0  
Snow Depth 0.00 in    
Sea Level Pressure  
Sea Level Pressure 29.84 in    
Wind  
Wind Speed 9 mph (SE)    
Max Wind Speed 18 mph    
Max Gust Speed 23 mph    
Visibility 10 miles    
Events Rain    
T = Trace of Precipitation, MM = Missing Value Source: NWS Daily Summary

Daily Weather History Graph

Daily Weather History Graph

Search for Another Location

Airport or City:

Trip Planner

Search our weather history database for the weather conditions in past years. The results will help you decide how hot, cold, wet, or windy it might be!

Date:

Astronomy

Oct. 16, 2012 Rise Set
Actual Time 8:00 AM EDT 6:59 PM EDT
Civil Twilight 7:31 AM EDT 7:28 PM EDT
Nautical Twilight 6:58 AM EDT 8:01 PM EDT
Astronomical Twilight 6:25 AM EDT 8:34 PM EDT
Moon 9:26 AM EDT (10/16) 7:39 PM EDT (10/16)
Length of Visible Light 11h 56m
Length of Day
10h 59m
New Moon, 2% of the Moon is Illuminated
Oct 16
New Moon
Oct 21
First Quarter
Oct 29
Full
Nov 6
Last Quarter
Nov 13
New

Hourly Weather History & Observations

Time (EDT) Temp. Windchill Dew Point Humidity Pressure Visibility Wind Dir Wind Speed Gust Speed Precip Events Conditions
12:55 AM 35.1 °F - 32.0 °F 89% 29.97 in 10.0 mi Calm Calm - N/A   Clear
1:55 AM 33.1 °F - 30.9 °F 92% 29.98 in 10.0 mi Calm Calm - N/A   Clear
2:55 AM 33.1 °F 27.7 °F 30.9 °F 92% 29.97 in 10.0 mi SE 5.8 mph - N/A   Clear
3:55 AM 34.0 °F 31.0 °F 32.0 °F 92% 29.98 in 10.0 mi ESE 3.5 mph - N/A   Clear
4:55 AM 33.1 °F 27.7 °F 30.0 °F 89% 29.97 in 10.0 mi ESE 5.8 mph - N/A   Clear
5:55 AM 34.0 °F 27.2 °F 30.9 °F 89% 29.96 in 10.0 mi SE 8.1 mph - N/A   Clear
6:55 AM 35.1 °F 30.1 °F 32.0 °F 89% 29.95 in 10.0 mi ESE 5.8 mph - N/A   Clear
7:55 AM 35.6 °F 32.8 °F 33.8 °F 93% 29.94 in 10.0 mi SSE 3.5 mph - N/A   Clear
8:55 AM 39.0 °F 34.0 °F 35.1 °F 86% 29.95 in 10.0 mi SE 6.9 mph - N/A   Clear
9:55 AM 43.0 °F 37.7 °F 37.0 °F 80% 29.96 in 10.0 mi SE 9.2 mph - N/A   Clear
10:55 AM 45.0 °F 39.7 °F 37.0 °F 74% 29.93 in 10.0 mi SSE 10.4 mph - N/A   Clear
11:55 AM 48.9 °F - 39.0 °F 69% 29.90 in 10.0 mi SSE 10.4 mph - N/A   Scattered Clouds
12:55 PM 54.0 °F - 39.9 °F 59% 29.87 in 10.0 mi SE 9.2 mph - N/A   Clear
1:55 PM 57.0 °F - 41.0 °F 55% 29.82 in 10.0 mi SSE 10.4 mph - N/A   Clear
2:55 PM 61.0 °F - 41.0 °F 48% 29.79 in 10.0 mi SSE 12.7 mph 16.1 mph N/A   Clear
3:55 PM 63.0 °F - 41.0 °F 45% 29.75 in 10.0 mi SSE 15.0 mph - N/A   Clear
4:55 PM 62.1 °F - 41.0 °F 46% 29.70 in 10.0 mi SE 13.8 mph 19.6 mph N/A   Clear
5:55 PM 61.0 °F - 41.0 °F 48% 29.67 in 10.0 mi SE 15.0 mph 21.9 mph N/A   Clear
6:55 PM 60.1 °F - 41.0 °F 49% 29.68 in 10.0 mi ESE 9.2 mph - N/A   Mostly Cloudy
7:55 PM 55.9 °F - 45.0 °F 67% 29.70 in 10.0 mi ESE 5.8 mph - 0.00 in Rain Light Rain
8:55 PM 54.0 °F - 44.1 °F 69% 29.67 in 10.0 mi SE 10.4 mph - 0.00 in   Clear
9:55 PM 55.0 °F - 43.0 °F 64% 29.64 in 10.0 mi SE 10.4 mph - N/A   Mostly Cloudy
10:55 PM 54.0 °F - 42.1 °F 64% 29.62 in 10.0 mi SE 10.4 mph - N/A   Clear
11:55 PM 54.0 °F - 42.1 °F 64% 29.62 in 10.0 mi SE 9.2 mph - N/A   Clear